Weather History for KMQI - December, 2012

Change the Weather History Date:

Tuesday, December 18, 2012

  Actual Average Record
Temperature  
Mean Temperature 57 °F -  
Max Temperature 64 °F 51 °F 69 °F (2006)
Min Temperature 51 °F 39 °F 23 °F (1980)
Degree Days  
Heating Degree Days 8    
Growing Degree Days 7 (Base 50)    
Moisture  
Dew Point 51 °F    
Average Humidity 79    
Maximum Humidity 96    
Minimum Humidity 64    
Precipitation  
Precipitation 0.01 in - - ()
Sea Level Pressure  
Sea Level Pressure 29.70 in    
Wind  
Wind Speed 10 mph (West)    
Max Wind Speed 17 mph    
Max Gust Speed 23 mph    
Visibility 10 miles    
Events Rain    
Averages and records for this station are not official NWS values.
T = Trace of Precipitation, MM = Missing Value Source: NWS Daily Summary

Daily Weather History Graph

Daily Weather History Graph

Search for Another Location

Airport or City:

Trip Planner

Search our weather history database for the weather conditions in past years. The results will help you decide how hot, cold, wet, or windy it might be!

Date:

Astronomy

Dec. 18, 2012 Rise Set
Actual Time 7:07 AM EST 4:51 PM EST
Civil Twilight 6:39 AM EST 5:19 PM EST
Nautical Twilight 6:07 AM EST 5:52 PM EST
Astronomical Twilight 5:36 AM EST 6:23 PM EST
Moon 10:56 AM EST (12/18) 11:03 PM EST (12/18)
Length of Visible Light 10h 40m
Length of Day
9h 43m
Waxing Crescent, 34% of the Moon is Illuminated
Dec 18
Waxing Crescent
Dec 20
First Quarter
Dec 28
Full
Jan 4
Last Quarter
Jan 11
New

Hourly Weather History & Observations

Time (EST) Temp. Dew Point Humidity Pressure Visibility Wind Dir Wind Speed Gust Speed Precip Events Conditions
12:15 AM 56.7 °F 55.4 °F 96% 29.68 in 10.0 mi SW 13.8 mph - N/A   Mostly Cloudy
12:35 AM 56.8 °F 55.4 °F 95% 29.67 in 10.0 mi SSW 15.0 mph - N/A   Mostly Cloudy
12:55 AM 56.3 °F 55.0 °F 96% 29.67 in 10.0 mi SSW 10.4 mph - N/A   Scattered Clouds
1:15 AM 56.5 °F 55.4 °F 96% 29.68 in 10.0 mi SW 9.2 mph - N/A   Clear
1:35 AM 56.5 °F 54.9 °F 94% 29.68 in 10.0 mi SW 6.9 mph - N/A   Mostly Cloudy
1:55 AM 56.5 °F 54.9 °F 94% 29.68 in 10.0 mi SW 6.9 mph - N/A   Scattered Clouds
2:15 AM 56.3 °F 54.9 °F 95% 29.68 in 10.0 mi WSW 8.1 mph - N/A   Scattered Clouds
2:35 AM 56.8 °F 55.0 °F 94% 29.68 in 10.0 mi WSW 10.4 mph - N/A   Overcast
2:55 AM 57.2 °F 55.2 °F 93% 29.68 in 10.0 mi WSW 10.4 mph - N/A   Overcast
3:15 AM 57.4 °F 55.4 °F 93% 29.68 in 10.0 mi WSW 11.5 mph - N/A   Overcast
3:35 AM 57.4 °F 55.0 °F 92% 29.68 in 10.0 mi WSW 11.5 mph - N/A   Mostly Cloudy
3:55 AM 57.4 °F 54.9 °F 91% 29.68 in 10.0 mi WSW 11.5 mph - N/A   Scattered Clouds
4:15 AM 57.6 °F 54.9 °F 91% 29.68 in 10.0 mi WSW 10.4 mph - N/A   Mostly Cloudy
4:35 AM 57.9 °F 54.9 °F 90% 29.68 in 10.0 mi WSW 11.5 mph - N/A   Mostly Cloudy
4:55 AM 57.6 °F 55.0 °F 91% 29.67 in 10.0 mi WSW 9.2 mph - N/A   Overcast
5:15 AM 57.6 °F 55.2 °F 92% 29.67 in 10.0 mi WSW 10.4 mph - N/A   Overcast
5:35 AM 57.2 °F 55.0 °F 92% 29.67 in 10.0 mi SW 9.2 mph - N/A   Scattered Clouds
6:15 AM 56.7 °F 54.9 °F 94% 29.68 in 10.0 mi SW 11.5 mph - N/A   Clear
6:35 AM 56.3 °F 54.7 °F 94% 29.68 in 10.0 mi WSW 10.4 mph - N/A   Clear
6:55 AM 56.3 °F 54.7 °F 94% 29.68 in 10.0 mi WSW 10.4 mph - N/A   Clear
7:15 AM 56.3 °F 54.5 °F 94% 29.69 in 10.0 mi SW 10.4 mph - N/A   Clear
7:35 AM 56.3 °F 54.5 °F 94% 29.69 in 10.0 mi SW 10.4 mph - N/A   Clear
7:55 AM 56.8 °F 54.5 °F 92% 29.70 in 10.0 mi WSW 10.4 mph - N/A   Clear
8:15 AM 57.7 °F 54.5 °F 89% 29.69 in 10.0 mi WSW 10.4 mph 16.1 mph N/A   Clear
8:35 AM 58.5 °F 54.5 °F 87% 29.68 in 10.0 mi WSW 8.1 mph - N/A   Clear
8:55 AM 59.4 °F 54.7 °F 84% 29.68 in 10.0 mi West 10.4 mph - N/A   Clear
9:15 AM 60.3 °F 54.5 °F 81% 29.68 in 10.0 mi WSW 9.2 mph - N/A   Clear
9:35 AM 60.8 °F 54.5 °F 80% 29.68 in 10.0 mi WSW 9.2 mph 16.1 mph N/A   Clear
9:55 AM 61.2 °F 55.0 °F 80% 29.68 in 10.0 mi WSW 10.4 mph - N/A   Clear
10:15 AM 61.9 °F 54.9 °F 78% 29.68 in 10.0 mi West 10.4 mph 16.1 mph N/A   Scattered Clouds
10:35 AM 62.6 °F 54.7 °F 75% 29.68 in 10.0 mi West 15.0 mph 20.7 mph N/A   Scattered Clouds
10:55 AM 62.6 °F 54.5 °F 75% 29.67 in 10.0 mi WSW 13.8 mph - N/A   Scattered Clouds
11:15 AM 62.6 °F 53.8 °F 73% 29.66 in 10.0 mi WSW 17.3 mph 23.0 mph N/A   Scattered Clouds
11:35 AM 61.9 °F 53.6 °F 74% 29.65 in 10.0 mi West 12.7 mph - N/A   Scattered Clouds
11:55 AM 61.3 °F 53.1 °F 74% 29.65 in 10.0 mi West 12.7 mph 19.6 mph N/A   Mostly Cloudy
12:15 PM 62.8 °F 53.8 °F 72% 29.64 in 10.0 mi West 10.4 mph 16.1 mph N/A   Mostly Cloudy
12:35 PM 61.9 °F 53.4 °F 74% 29.64 in 10.0 mi West 8.1 mph - N/A   Scattered Clouds
12:55 PM 62.1 °F 53.2 °F 73% 29.63 in 10.0 mi West 12.7 mph 17.3 mph N/A   Scattered Clouds
1:15 PM 62.1 °F 53.2 °F 73% 29.62 in 10.0 mi WNW 6.9 mph - N/A   Overcast
1:35 PM 60.8 °F 53.1 °F 76% 29.63 in 10.0 mi WNW 6.9 mph - N/A   Scattered Clouds
1:55 PM 63.5 °F 54.1 °F 72% 29.63 in 10.0 mi West 5.8 mph - N/A   Scattered Clouds
2:15 PM 63.5 °F 54.5 °F 72% 29.63 in 10.0 mi WNW 8.1 mph - N/A   Mostly Cloudy
2:35 PM 60.1 °F 54.7 °F 82% 29.63 in 10.0 mi West 5.8 mph - 0.01 in Rain Light Rain
2:55 PM 61.9 °F 55.0 °F 78% 29.65 in 10.0 mi West 4.6 mph - 0.01 in   Mostly Cloudy
3:15 PM 61.0 °F 53.8 °F 77% 29.65 in 10.0 mi West 5.8 mph - N/A   Mostly Cloudy
3:35 PM 60.6 °F 53.1 °F 76% 29.66 in 10.0 mi WNW 5.8 mph - N/A   Overcast
3:55 PM 60.4 °F 52.7 °F 76% 29.65 in 10.0 mi NW 4.6 mph - N/A   Scattered Clouds
4:15 PM 59.4 °F 49.8 °F 71% 29.67 in 10.0 mi NW 9.2 mph - N/A   Scattered Clouds
4:35 PM 58.5 °F 48.9 °F 71% 29.68 in 10.0 mi NW 8.1 mph - N/A   Mostly Cloudy
4:55 PM 57.4 °F 48.2 °F 71% 29.69 in 10.0 mi NW 6.9 mph - N/A   Mostly Cloudy
5:15 PM 57.0 °F 48.2 °F 72% 29.69 in 10.0 mi WNW 8.1 mph - N/A   Scattered Clouds
5:35 PM 57.2 °F 47.1 °F 69% 29.71 in 10.0 mi WNW 6.9 mph 16.1 mph N/A   Mostly Cloudy
5:55 PM 56.8 °F 47.3 °F 70% 29.71 in 10.0 mi WNW 6.9 mph - N/A   Mostly Cloudy
6:15 PM 55.9 °F 47.7 °F 74% 29.72 in 10.0 mi WNW 8.1 mph - N/A   Scattered Clouds
6:35 PM 55.4 °F 48.2 °F 77% 29.73 in 10.0 mi West 4.6 mph - N/A   Clear
6:55 PM 55.4 °F 47.3 °F 74% 29.74 in 10.0 mi WNW 5.8 mph - N/A   Clear
7:15 PM 55.4 °F 46.4 °F 72% 29.75 in 10.0 mi West 8.1 mph - N/A   Clear
7:35 PM 55.4 °F 44.8 °F 67% 29.76 in 10.0 mi WNW 8.1 mph - N/A   Clear
7:55 PM 55.4 °F 44.8 °F 67% 29.78 in 10.0 mi WNW 9.2 mph 17.3 mph N/A   Scattered Clouds
8:15 PM 55.0 °F 44.4 °F 67% 29.79 in 10.0 mi WNW 11.5 mph 18.4 mph N/A   Clear
8:35 PM 54.7 °F 43.9 °F 67% 29.80 in 10.0 mi WNW 10.4 mph - N/A   Clear
8:55 PM 54.5 °F 43.5 °F 66% 29.81 in 10.0 mi WNW 10.4 mph 17.3 mph N/A   Clear
9:15 PM 54.1 °F 42.6 °F 65% 29.82 in 10.0 mi WNW 10.4 mph 19.6 mph N/A   Clear
9:35 PM 53.6 °F 42.1 °F 65% 29.82 in 10.0 mi WNW 9.2 mph 17.3 mph N/A   Clear
9:55 PM 53.2 °F 42.1 °F 66% 29.82 in 10.0 mi NW 8.1 mph - N/A   Clear
10:15 PM 53.1 °F 42.1 °F 66% 29.85 in 10.0 mi WNW 11.5 mph 18.4 mph N/A   Clear
10:35 PM 52.7 °F 41.9 °F 67% 29.86 in 10.0 mi WNW 10.4 mph 17.3 mph N/A   Clear
10:55 PM 52.7 °F 41.0 °F 64% 29.86 in 10.0 mi WNW 11.5 mph 19.6 mph N/A   Clear
11:15 PM 52.2 °F 40.6 °F 65% 29.86 in 10.0 mi WNW 10.4 mph 18.4 mph N/A   Clear
11:35 PM 51.8 °F 40.6 °F 66% 29.86 in 10.0 mi NW 10.4 mph 18.4 mph N/A   Clear
11:55 PM 51.4 °F 40.1 °F 65% 29.86 in 10.0 mi WNW 8.1 mph 17.3 mph N/A   Clear